Voltar ao catálogo

SL-12 R/B

AUX MOTOR

AtivoHEO
NORAD 23402·ROCKET BODY·🇷🇺 Russia

Lançado Nov 20, 1994 de Baikonur Cosmodrome

Loading…

Próximas Passagens (próximas 24 horas)

TLE

AtualizadoSource: Space-Track

Época: Sep 13, 2026, 10:50 UTC

1 23402U 94076G   26256.45159498  .00000002  00000-0  16864-3 0  9993
2 23402  65.4101 269.0296 5592402 114.7586 312.1457  4.27498056493513

Acompanhe SL-12 R/B em tempo real com AllMySat

Download on the App Store